SCP
0 0 0 0 0 0 0 0 0 0 0 0 0 0 0 0 0 0 0 0 0 0
0 0 0 0 0 0 0 0 0 0 0 0 0 0 0 0 0 0 0 0 0 0
0 0 0 0 0 0 0 0 0 0 0 0 0 0 0 0 0 0 0 0 0 0
0 0 0 0 0 0 0 0 0 0 0 0 0 0 0 0 0 0 0 0 0 0
0 0 0 0 0 0 0 0 0 0 0 0 0 0 0 0 0 0 0 0 0 0
0 0 0 0 0 0 0 0 0 0 0 0 0 0 0 0 0 0 0 0 0 0
0 0 0 0 0 0 0 0 0 0 0 0 0 0 0 0 0 0 0 0 0 0
0 0 0 0 0 0 0 0 0 0 0 0 0 0 0 0 0 0 0 0 0 0
0 0 0 0 0 0 0 0 0 0 0 0 0 0 0 0 0 0 0 0 0 0
0 0 0 0 0 0 0 0 0 0 0 0 0 0 0 0 0 0 0 0 0 0
0 0 0 0 0 0 0 0 0 0 0 0 0 0 0 0 0 0 0 0 0 0
0 0 0 0 0 0 0 0 0 0 0 0 0 0 0 0 0 0 0 0 0 0
0 0 0 0 0 0 0 0 0 0 0 0 0 0 0 0 0 0 0 0 0 0
0 0 0 0 0 0 0 0 0 0 0 0 0 0 0 0 0 0 0 0 0 0
Wind_Speed_500mb
35 37 39 38 38 41 48 47 45 50 52 52 55 60 60 66 68 74 70 71 74 78
16 19 22 26 29 32 37 40 42 46 49 52 56 59 60 67 71 73 77 77 74 84
3 3 6 10 14 19 24 28 33 37 40 43 48 53 59 65 69 71 75 77 78 75
10 7 5 6 9 14 18 22 26 31 34 38 43 47 52 58 63 67 70 74 76 79
5 5 9 14 19 23 28 31 35 38 42 42 45 48 53 58 62 66 70 73 77 80
12 14 16 18 22 26 30 34 36 40 43 46 49 53 56 60 64 67 71 74 78 80
13 16 19 22 25 28 32 36 38 41 44 47 51 53 56 59 64 69 69 71 74 74
20 22 24 26 30 33 36 39 42 44 46 49 51 53 57 60 62 65 67 67 68 69
22 26 30 34 37 40 42 45 47 49 50 50 51 55 58 62 64 64 67 69 68 68
28 31 35 37 41 44 47 49 50 50 52 52 53 56 57 59 64 65 66 66 67 66
34 37 39 41 42 45 47 50 53 53 56 58 54 57 57 60 62 63 60 61 61 63
37 39 41 42 44 47 51 53 56 59 61 64 62 62 64 62 63 65 64 59 56 56
41 45 47 49 50 52 56 58 60 62 62 64 66 61 62 59 62 65 65 64 59 54
45 49 53 54 56 60 61 64 66 68 66 63 64 65 58 54 57 58 62 62 58 51
Wind_Direction_500mb
240 242 244 246 250 248 253 261 260 260 263 266 268 268 270 273 272 273 275 272 274 277
224 233 239 244 248 250 249 253 255 256 257 258 260 264 266 267 269 270 270 271 272 271
147 206 244 253 260 265 267 268 267 268 268 266 264 261 261 262 265 267 270 271 271 271
91 80 43 347 317 302 291 285 282 279 276 275 272 269 267 267 269 269 270 271 271 270
15 340 316 310 308 304 298 292 289 285 283 280 278 278 277 276 275 274 274 274 273 273
337 336 328 317 307 302 299 298 296 294 292 289 286 282 278 276 275 274 273 274 274 275
338 337 332 329 325 320 316 313 310 306 304 301 297 293 288 284 281 278 276 274 274 274
350 346 341 335 332 330 327 323 319 316 314 312 309 305 300 296 293 288 285 281 278 276
330 324 323 322 320 319 317 316 314 312 311 310 308 304 304 302 299 296 292 289 284 280
328 326 323 322 318 316 314 312 310 309 307 307 307 304 302 300 299 298 297 296 293 289
324 323 323 322 321 320 319 318 317 316 314 310 307 302 301 298 294 291 291 290 290 288
320 319 319 320 321 320 318 317 316 316 314 311 310 307 306 303 300 296 293 290 288 287
318 317 317 317 318 317 316 315 315 313 314 312 309 306 303 301 299 298 297 295 293 289
308 307 308 309 312 312 313 313 314 314 313 312 310 308 305 300 296 295 294 293 297 300
Wind_Speed_850mb
35 37 39 38 38 41 48 47 45 50 52 52 55 60 60 66 68 74 70 71 74 78
16 19 22 26 29 32 37 40 42 46 49 52 56 59 60 67 71 73 77 77 74 84
3 3 6 10 14 19 24 28 33 37 40 43 48 53 59 65 69 71 75 77 78 75
10 7 5 6 9 14 18 22 26 31 34 38 43 47 52 58 63 67 70 74 76 79
5 5 9 14 19 23 28 31 35 38 42 42 45 48 53 58 62 66 70 73 77 80
12 14 16 18 22 26 30 34 36 40 43 46 49 53 56 60 64 67 71 74 78 80
13 16 19 22 25 28 32 36 38 41 44 47 51 53 56 59 64 69 69 71 74 74
20 22 24 26 30 33 36 39 42 44 46 49 51 53 57 60 62 65 67 67 68 69
22 26 30 34 37 40 42 45 47 49 50 50 51 55 58 62 64 64 67 69 68 68
28 31 35 37 41 44 47 49 50 50 52 52 53 56 57 59 64 65 66 66 67 66
34 37 39 41 42 45 47 50 53 53 56 58 54 57 57 60 62 63 60 61 61 63
37 39 41 42 44 47 51 53 56 59 61 64 62 62 64 62 63 65 64 59 56 56
41 45 47 49 50 52 56 58 60 62 62 64 66 61 62 59 62 65 65 64 59 54
45 49 53 54 56 60 61 64 66 68 66 63 64 65 58 54 57 58 62 62 58 51
Wind_Direction_850mb
240 242 244 246 250 248 253 261 260 260 263 266 268 268 270 273 272 273 275 272 274 277
224 233 239 244 248 250 249 253 255 256 257 258 260 264 266 267 269 270 270 271 272 271
147 206 244 253 260 265 267 268 267 268 268 266 264 261 261 262 265 267 270 271 271 271
91 80 43 347 317 302 291 285 282 279 276 275 272 269 267 267 269 269 270 271 271 270
15 340 316 310 308 304 298 292 289 285 283 280 278 278 277 276 275 274 274 274 273 273
337 336 328 317 307 302 299 298 296 294 292 289 286 282 278 276 275 274 273 274 274 275
338 337 332 329 325 320 316 313 310 306 304 301 297 293 288 284 281 278 276 274 274 274
350 346 341 335 332 330 327 323 319 316 314 312 309 305 300 296 293 288 285 281 278 276
330 324 323 322 320 319 317 316 314 312 311 310 308 304 304 302 299 296 292 289 284 280
328 326 323 322 318 316 314 312 310 309 307 307 307 304 302 300 299 298 297 296 293 289
324 323 323 322 321 320 319 318 317 316 314 310 307 302 301 298 294 291 291 290 290 288
320 319 319 320 321 320 318 317 316 316 314 311 310 307 306 303 300 296 293 290 288 287
318 317 317 317 318 317 316 315 315 313 314 312 309 306 303 301 299 298 297 295 293 289
308 307 308 309 312 312 313 313 314 314 313 312 310 308 305 300 296 295 294 293 297 300